カタログに戻る

SL-14 DEB

運用中PO
NORAD 45325·DEBRIS·🇷🇺 Russia

打ち上げ Aug 15, 1991 から Plesetsk Cosmodrome

Loading…

次のパス (今後24時間)

TLE

最新Source: Space-Track

元期: Sep 14, 2026, 04:53 UTC

1 45325U 91056BP  26257.20362412  .00031263  00000-0  60710-2 0  9993
2 45325  82.5156 212.6458 0080191 109.7296 251.2579 14.60963749331455

AllMySatでSL-14 DEBをリアルタイム追跡

Download on the App Store